User: anonymous   Login
Location: Los Gatos B&B
(42.6926°N, 77.0646°W)
Time: 16:15:32
(UTC-05:00)
Language:

Cosmos 2263 Rocket - Orbit

View from above orbital plane
View from above orbital plane
View from above satellite
View from above satellite

Ground track
Ground track

The orbit data is extracted from the following two-line orbital elements,

1 22803U 93059B   16343.38204749 -.00000017  00000-0  15556-4 0  9990
2 22803  70.9910 291.5005 0019054 311.0505  48.8971 14.16760688201253
Epoch (UTC): 08 December 2016 09:10:08
Eccentricity: 0.0019054
inclination: 70.9910°
perigee height: 822 km
apogee height: 850 km
right ascension of ascending node: 291.5005°
argument of perigee: 311.0505°
revolutions per day: 14.16760688
mean anomaly at epoch: 48.8971°
orbit number at epoch: 20125

The dashed part of the orbit path shows where the satellite is in the earth's shadow,  

DLR